Weather History for Spirit of St Louis, MO

Change the Weather History Date:

Thursday, April 18, 2013

  Actual Average Record
Temperature  
Mean Temperature 60 °F -  
Max Temperature 77 °F 66 °F 93 °F (2002)
Min Temperature 42 °F 43 °F 28 °F (2001)
Degree Days  
Heating Degree Days 6    
Growing Degree Days 10 (Base 50)    
Moisture  
Dew Point 55 °F    
Average Humidity 82    
Maximum Humidity 94    
Minimum Humidity 61    
Precipitation  
Precipitation 1.89 in - - ()
Sea Level Pressure  
Sea Level Pressure 29.64 in    
Wind  
Wind Speed 12 mph (SSW)    
Max Wind Speed 22 mph    
Max Gust Speed 40 mph    
Visibility 6 miles    
Events Rain , Thunderstorm    
Averages and records for this station are not official NWS values.
T = Trace of Precipitation, MM = Missing Value Source: NWS Daily Summary

Daily Weather History Graph

Daily Weather History Graph

Search for Another Location

Airport:

Trip Planner

Search our weather history database for the weather conditions in past years. The results will help you decide how hot, cold, wet, or windy it might be!

Date:

Astronomy

Apr. 18, 2013 Rise Set
Actual Time 6:21 AM CDT 7:42 PM CDT
Civil Twilight 5:54 AM CDT 8:10 PM CDT
Nautical Twilight 5:21 AM CDT 8:43 PM CDT
Astronomical Twilight 4:46 AM CDT 9:18 PM CDT
Moon 12:34 PM CDT (4/18) 1:56 AM CDT (4/18)
Length of Visible Light 14h 16m
Length of Day
13h 20m
First Quarter, 52% of the Moon is Illuminated
Apr 18
First Quarter
Apr 25
Full
May 2
Last Quarter
May 9
New
May 17
First Quarter

Hourly Weather History & Observations

Time (CDT) Temp. Windchill Dew Point Humidity Pressure Visibility Wind Dir Wind Speed Gust Speed Precip Events Conditions
12:54 AM 77.0 °F - 63.0 °F 62% 29.62 in 10.0 mi South 13.8 mph 31.1 mph N/A   Partly Cloudy
1:54 AM 77.0 °F - 64.0 °F 64% 29.60 in 10.0 mi South 17.3 mph 27.6 mph N/A   Clear
2:54 AM 77.0 °F - 64.0 °F 64% 29.58 in 10.0 mi South 10.4 mph 19.6 mph N/A   Scattered Clouds
3:54 AM 77.0 °F - 64.0 °F 64% 29.55 in 10.0 mi South 13.8 mph 26.5 mph N/A   Scattered Clouds
4:54 AM 77.0 °F - 63.0 °F 62% 29.54 in 10.0 mi SSW 17.3 mph 31.1 mph N/A   Partly Cloudy
5:22 AM 77.0 °F - 62.6 °F 61% 29.55 in 10.0 mi South 19.6 mph 28.8 mph N/A Thunderstorm Overcast
5:37 AM 75.2 °F - 64.4 °F 69% 29.55 in 9.0 mi South 13.8 mph 23.0 mph 0.01 in Rain Light Rain
5:54 AM 75.0 °F - 64.9 °F 71% 29.53 in 10.0 mi South 13.8 mph 21.9 mph 0.01 in Rain , Thunderstorm Light Rain
6:17 AM 66.2 °F - 60.8 °F 83% 29.64 in 4.0 mi West 18.4 mph 40.3 mph 0.04 in Rain , Thunderstorm Thunderstorms and Rain
6:23 AM 64.4 °F - 60.8 °F 88% 29.64 in 1.8 mi West 15.0 mph 27.6 mph 0.17 in Rain , Thunderstorm Heavy Thunderstorms and Rain
6:50 AM 62.6 °F - 60.8 °F 94% 29.64 in 3.0 mi WSW 9.2 mph - 0.41 in Rain , Thunderstorm Light Thunderstorms and Rain
6:54 AM 63.0 °F - 61.0 °F 93% 29.63 in 3.0 mi SW 8.1 mph - 0.42 in Rain , Thunderstorm Thunderstorms and Rain
6:56 AM 64.4 °F - 60.8 °F 88% 29.65 in 7.0 mi SW 5.8 mph - 0.00 in Rain , Thunderstorm Light Thunderstorms and Rain
7:01 AM 64.4 °F - 60.8 °F 88% 29.65 in 3.0 mi SW 9.2 mph - 0.01 in Thunderstorm Overcast
7:43 AM 62.6 °F - 60.8 °F 94% 29.65 in 3.0 mi Calm Calm - 0.08 in Rain Rain
7:54 AM 63.0 °F - 61.0 °F 93% 29.61 in 3.0 mi Calm Calm - 0.11 in Rain Rain
7:57 AM 62.6 °F - 60.8 °F 94% 29.63 in 6.0 mi Calm Calm - 0.00 in Rain Light Rain
8:54 AM 63.0 °F - 61.0 °F 93% 29.63 in 4.0 mi SSE 5.8 mph - 0.08 in Rain Rain
9:06 AM 62.6 °F - 60.8 °F 94% 29.64 in 4.0 mi SE 4.6 mph - 0.03 in Rain , Thunderstorm Rain
9:21 AM 62.6 °F - 60.8 °F 94% 29.65 in 3.0 mi SE 5.8 mph - 0.08 in Rain Rain
9:24 AM 62.6 °F - 60.8 °F 94% 29.64 in 2.5 mi ESE 3.5 mph - 0.11 in Rain Heavy Rain
9:54 AM 64.0 °F - 62.1 °F 93% 29.61 in 3.0 mi SE 4.6 mph - 0.18 in Rain Rain
10:15 AM 64.4 °F - 62.6 °F 94% 29.64 in 1.8 mi SSE 6.9 mph - 0.13 in Rain Heavy Rain
10:27 AM 64.4 °F - 62.6 °F 94% 29.63 in 3.0 mi SSE 3.5 mph - 0.19 in Rain Rain
10:54 AM 64.0 °F - 61.0 °F 90% 29.61 in 3.0 mi SE 5.8 mph - 0.32 in Rain Heavy Rain
11:05 AM 62.6 °F - 60.8 °F 94% 29.62 in 2.5 mi ESE 9.2 mph - N/A Rain Rain
11:12 AM 64.4 °F - 60.8 °F 88% 29.64 in 1.5 mi South 10.4 mph - 0.12 in Rain , Thunderstorm Heavy Rain
11:27 AM 64.4 °F - 60.8 °F 88% 29.63 in 2.5 mi SSE 6.9 mph 16.1 mph 0.21 in Rain Heavy Rain
11:42 AM 64.4 °F - 60.8 °F 88% 29.62 in 2.5 mi SE 11.5 mph - 0.28 in Rain , Thunderstorm Thunderstorms and Rain
11:54 AM 63.0 °F - 61.0 °F 93% 29.60 in 2.5 mi SE 8.1 mph - 0.33 in Rain , Thunderstorm Thunderstorms and Rain
12:09 PM 62.6 °F - 60.8 °F 94% 29.59 in 2.5 mi SE 11.5 mph - 0.05 in Rain Rain
12:11 PM 62.6 °F - 60.8 °F 94% 29.59 in 5.0 mi SE 10.4 mph - 0.05 in Rain Rain
12:54 PM 63.0 °F - 61.0 °F 93% 29.56 in 9.0 mi South 11.5 mph 20.7 mph 0.12 in Rain Light Rain
1:54 PM 64.9 °F - 62.1 °F 90% 29.55 in 6.0 mi South 11.5 mph - 0.06 in Rain Light Rain
2:20 PM 60.8 °F - 57.2 °F 88% 29.60 in 3.0 mi West 15.0 mph 36.8 mph 0.07 in Rain Rain
2:51 PM 57.2 °F - 53.6 °F 88% 29.65 in 4.0 mi West 19.6 mph 31.1 mph 0.11 in Rain Rain
2:54 PM 55.9 °F - 53.1 °F 90% 29.64 in 4.0 mi West 19.6 mph 31.1 mph 0.12 in Rain Rain
3:54 PM 51.1 °F - 46.9 °F 86% 29.65 in 10.0 mi WSW 16.1 mph - 0.11 in Rain Light Rain
4:25 PM 50.0 °F - 46.4 °F 87% 29.68 in 10.0 mi WSW 15.0 mph 23.0 mph 0.03 in Rain Light Rain
4:54 PM 48.9 °F - 43.0 °F 80% 29.67 in 10.0 mi West 16.1 mph 27.6 mph 0.03 in   Overcast
5:54 PM 48.0 °F - 39.9 °F 74% 29.72 in 10.0 mi West 13.8 mph 25.3 mph N/A   Overcast
6:54 PM 46.9 °F - 39.0 °F 74% 29.76 in 10.0 mi West 12.7 mph 21.9 mph N/A   Overcast
7:54 PM 46.0 °F 40.2 °F 37.9 °F 73% 29.75 in 10.0 mi West 12.7 mph 23.0 mph N/A   Overcast
8:54 PM 45.0 °F 37.9 °F 35.1 °F 68% 29.78 in 10.0 mi West 16.1 mph 29.9 mph N/A   Overcast
9:54 PM 44.1 °F 35.7 °F 32.0 °F 63% 29.80 in 10.0 mi West 20.7 mph 28.8 mph N/A   Overcast
10:54 PM 43.0 °F 36.8 °F 32.0 °F 65% 29.78 in 10.0 mi West 11.5 mph 21.9 mph N/A   Overcast
11:18 PM 42.8 °F 34.5 °F 32.0 °F 66% 29.78 in 10.0 mi WNW 18.4 mph 33.4 mph N/A   Overcast
11:32 PM 42.8 °F 33.8 °F 30.2 °F 61% 29.77 in 10.0 mi WNW 21.9 mph 29.9 mph N/A   Overcast
11:54 PM 42.1 °F 34.9 °F 30.0 °F 62% 29.78 in 10.0 mi WNW 13.8 mph 21.9 mph N/A   Overcast